Flag for Canada Weather past 2 weeks in Whitby, Ontario, Canada

Now
25 °F

Mostly cloudy.


Feels Like: 12 °F
Forecast: 24 / 33 °F
Wind: 16 mph from North

Location: Toronto Buttonville

Current Time: Mar 27, 2015 at 12:38:32 PM

Latest Report: Mar 27, 2015 at 12:00 PM


Visibility: 15 mi

Pressure: 29.91 "Hg

Humidity: 69%

Dew point: 16 °F

Location of WhitbyLocation

Historic Weather in Whitby — Graph

°F

Whitby temperature yesterday

Maximum temperature yesterday: 41 °F (at 12:00 AM)
Minimum temperature yesterday: 36 °F (at 8:00 AM)
Average temperature yesterday: 38 °F

Past Weeks' High & Low Weather Summary

 TemperatureHumidityPressure
High50 °F (Mar 16, 4:00 PM)100% (Mar 14, 5:00 AM)30.66 "Hg (Mar 14, 5:00 AM)
Low10 °F (Mar 23, 7:00 AM)25% (Mar 19, 2:00 PM)29.68 "Hg (Mar 17, 2:00 AM)
Average31 °F64%30.12 "Hg
* Reported Mar 12 11:00 AM — Mar 27 11:00 AM, Whitby, Weather by CustomWeather, © 2015

Note: Actual official high and low records may vary slightly from our data, if they occured in-between our weather recording intervals... More about our weather records

Advertising

Whitby weather history for previous 24 hours

 ConditionsComfort  
Time TempWeatherWind HumidityBarometerVisibility
11:00 AM
Fri, Mar 27
25 °FOvercast.13 mph69%29.92 "Hg15 mi
10:00 AM25 °FOvercast.13 mph69%29.90 "Hg15 mi
9:45 AMN/AOvercast.15 mphN/AN/A15 mi
9:00 AM23 °FOvercast.15 mph80%29.89 "Hg15 mi
8:00 AM25 °FOvercast.14 mph80%29.88 "Hg15 mi
7:00 AM27 °FPassing clouds.10 mph86%29.86 "Hg15 mi
6:00 AM30 °FPassing clouds.13 mph80%29.85 "Hg15 mi
5:00 AM32 °FPassing clouds.6 mph75%29.84 "Hg15 mi
4:00 AM32 °FPassing clouds.9 mph80%29.82 "Hg15 mi
3:00 AM34 °FPassing clouds.5 mph81%29.82 "Hg15 mi
2:00 AM34 °FPassing clouds.3 mph81%29.82 "Hg15 mi
1:00 AM34 °FPassing clouds.3 mph75%29.82 "Hg15 mi
12:00 AM34 °FPassing clouds.3 mph81%29.83 "Hg15 mi
11:00 PM
Thu, Mar 26
36 °FOvercast.9 mph75%29.83 "Hg15 mi
10:00 PM37 °FOvercast.7 mph75%29.84 "Hg15 mi
9:00 PM37 °FOvercast.5 mph81%29.83 "Hg15 mi
8:00 PM37 °FOvercast.6 mph81%29.80 "Hg15 mi
7:00 PM39 °FPartly sunny.9 mph70%29.80 "Hg15 mi
6:00 PM41 °FOvercast.8 mph70%29.78 "Hg12 mi
5:00 PM39 °FMostly cloudy.7 mph87%29.76 "Hg8 mi
4:00 PM41 °FOvercast.5 mph76%29.77 "Hg8 mi
3:00 PM41 °FMostly cloudy.5 mph76%29.77 "Hg8 mi
2:00 PM39 °FFog.6 mph87%29.79 "Hg4 mi
1:00 PM37 °FSprinkles. Fog.8 mph93%29.81 "Hg3 mi
12:47 PMN/ASprinkles.8 mphN/AN/A3 mi
12:00 PM37 °FLight rain. Fog.8 mph87%29.83 "Hg4 mi
Weather by CustomWeather, © 2015

See weather overviewHow to use our weather pages